Presure
133 110 141 143 159 164 159 164 161 162 158 161 170 165 162 165 149 152 144 148 146 150 156 141 149 156 194 182 160 170 178 219 149 137 129 134 128 135 161 127 127 128 126 125
128 127 144 143 126 136 148 97 82 152 161 115 150 149 148 146 142 145 143 140 143 143 148 164 150 150 207 186 173 178 166 217 162 136 128 126 135 148 123 120 147 123 136 137
132 126 134 137 101 142 138 96 150 133 154 159 157 150 152 144 149 138 137 137 140 135 164 146 150 149 158 183 188 189 165 208 240 136 141 133 127 143 126 122 130 150 123 125
97 138 134 134 127 141 134 131 143 150 144 141 141 141 147 154 136 134 128 139 137 135 162 158 158 146 149 165 217 169 170 175 243 154 137 135 131 133 129 135 137 126 126 135
143 147 139 97 117 143 143 82 149 132 139 141 130 126 131 137 127 126 117 139 135 136 127 147 147 153 144 151 166 188 181 169 230 153 140 141 130 128 131 128 133 134 115 129
153 129 127 133 140 141 99 104 135 132 129 137 135 130 126 129 124 130 125 134 133 133 143 139 151 147 135 145 152 199 166 170 172 224 152 133 140 133 124 130 128 131 120 115
163 155 149 87 94 150 136 112 135 154 118 88 125 133 139 127 128 128 141 138 134 124 148 128 158 144 148 136 143 153 187 187 167 169 219 137 141 141 126 140 131 125 126 126
293 128 94 146 90 109 127 153 143 141 132 136 104 109 109 132 134 137 127 131 133 128 164 135 145 137 140 151 137 136 161 178 163 168 170 201 159 139 134 143 132 121 120 126
299 306 172 158 85 126 133 152 129 144 81 119 125 149 151 114 130 135 130 120 133 133 158 135 162 158 150 134 146 140 143 159 183 182 166 165 169 180 159 157 151 112 118 137
308 209 257 178 128 107 107 110 101 141 140 128 118 132 126 162 143 119 116 138 127 119 145 160 127 130 142 169 145 141 141 143 140 180 185 186 168 168 171 160 173 150 154 133
362 306 245 89 92 139 82 135 92 139 121 126 103 99 143 162 108 127 113 140 130 132 126 153 150 151 153 140 138 134 136 137 142 135 162 191 192 181 169 161 162 137 126 130
350 298 302 295 244 198 182 163 145 133 142 132 100 88 158 147 149 145 153 112 118 122 132 136 114 162 159 163 126 140 135 142 134 139 142 138 175 187 182 168 169 162 152 154
357 310 272 297 309 215 192 183 88 140 87 103 145 119 109 135 103 155 101 136 115 105 149 150 144 138 126 122 173 131 156 147 169 140 128 133 129 138 159 178 167 164 170 165
317 362 387 293 304 184 232 218 132 115 123 144 146 137 126 152 99 108 99 145 124 148 137 127 134 116 145 146 124 124 119 119 147 140 146 136 142 129 134 133 166 159 183 178
298 358 168 399 290 309 289 223 178 100 140 81 143 155 125 150 116 100 137 152 123 95 115 126 116 142 148 116 136 139 139 141 161 123 148 132 145 150 138 134 132 135 137 178
356 371 389 419 440 173 81 254 223 90 88 135 148 111 118 140 176 88 162 131 125 159 151 107 131 130 135 137 141 148 135 100 131 137 221 213 160 133 137 142 138 131 136 141
407 461 457 483 388 301 313 281 248 245 79 142 136 98 140 147 120 93 157 142 155 147 148 145 129 148 152 147 114 134 100 141 148 139 160 182 126 208 153 148 139 146 132 134
423 426 238 480 463 471 310 297 256 227 208 181 159 156 137 113 140 139 126 152 136 144 150 128 132 148 150 155 103 100 128 119 140 147 135 140 138 198 212 165 165 135 134 141
420 436 448 400 422 418 131 298 268 237 210 185 96 96 97 112 107 148 147 98 89 95 109 110 103 158 148 142 143 124 131 117 102 107 128 118 135 145 182 142 155 161 151 146
86 237 112 390 418 371 311 299 272 240 206 202 174 167 91 91 88 132 90 151 149 148 133 101 139 143 150 164 108 114 154 147 154 149 138 127 117 164 142 196 147 192 192 146
350 359 349 379 358 180 362 290 275 245 220 202 146 141 179 176 156 117 106 98 140 168 154 152 128 122 168 142 176 180 121 122 202 174 176 198 134 139 168 170 199 206 127 138
325 346 349 368 147 368 217 283 268 254 226 209 189 156 205 188 183 178 175 170 103 127 171 149 146 174 177 174 174 171 206 200 188 194 206 199 191 173 139 145 196 152 145 199
322 314 334 346 288 294 328 279 273 254 232 211 194 111 202 206 143 191 183 178 175 107 182 146 176 129 136 156 190 203 200 184 179 182 207 192 194 197 195 193 198 198 203 198
297 299 319 344 283 128 301 278 274 204 236 199 206 212 216 209 204 201 195 189 184 184 184 174 155 166 183 189 189 194 190 179 174 192 207 198 194 183 174 170 191 198 215 202
223 285 298 426 293 222 301 273 264 246 233 217 208 211 142 188 206 197 199 195 182 210 201 189 191 187 183 188 192 195 190 189 213 200 198 195 188 185 187 165 183 200 197 195
267 272 279 299 339 277 310 261 255 243 138 220 213 213 94 204 208 206 193 197 194 149 184 205 204 191 192 193 188 178 196 193 208 198 194 195 178 182 170 169 190 198 200 208
Wind_Speed
51 29 60 48 49 44 42 39 32 31 31 30 27 24 23 20 18 16 14 10 7 5 4 3 3 8 0 5 9 7 4 9 16 11 9 16 12 15 15 14 13 10 12 14
53 55 61 52 43 40 46 21 16 38 34 25 29 24 25 22 22 16 11 8 6 6 3 6 3 5 6 3 7 9 8 6 18 15 10 7 15 14 12 8 12 7 11 11
65 61 56 53 19 50 50 22 40 33 32 30 30 29 28 25 21 16 15 11 10 5 15 8 7 3 4 8 3 8 11 4 14 15 16 12 10 15 11 9 12 10 7 10
36 81 64 59 52 53 46 47 40 40 35 30 28 26 25 30 22 21 13 16 15 9 12 11 7 4 2 3 1 7 11 8 13 19 16 16 10 14 11 10 13 9 6 8
77 87 78 28 37 60 59 25 49 36 37 31 32 32 30 33 26 21 24 21 18 14 17 11 9 8 7 2 4 7 9 11 11 21 20 20 13 11 11 10 10 11 4 6
87 67 62 63 69 67 34 27 35 34 30 33 42 43 40 42 30 33 28 24 18 16 19 11 15 10 10 6 3 4 12 13 12 13 22 19 20 16 12 12 11 10 2 6
100 96 86 34 25 75 54 43 38 45 36 34 52 48 56 41 35 30 34 27 23 24 28 20 23 12 13 9 6 5 9 5 15 16 17 22 22 20 13 17 13 7 7 8
97 70 37 85 38 42 40 74 49 49 56 70 18 41 33 43 38 41 29 30 30 24 29 19 23 15 12 17 9 8 9 15 17 17 17 19 23 23 20 20 16 13 7 12
98 96 114 93 25 61 36 74 60 57 26 28 32 68 67 32 41 44 39 35 29 26 29 23 23 29 23 10 15 9 9 10 15 13 19 20 22 20 21 23 20 7 10 17
106 65 111 111 50 43 39 43 28 55 63 61 47 63 29 63 52 41 37 46 24 23 30 28 18 18 20 23 17 14 10 11 12 19 16 20 24 24 23 24 22 21 23 17
77 106 88 35 39 77 21 53 33 48 57 62 35 37 68 51 26 48 36 43 35 32 26 33 26 30 23 19 16 16 13 13 13 12 15 17 22 24 25 26 24 18 20 17
79 108 107 103 118 124 109 75 62 50 69 65 33 15 79 61 38 48 51 25 25 26 30 32 29 28 33 33 19 19 17 20 14 16 15 13 22 25 26 28 27 26 27 26
73 68 96 110 114 127 115 104 15 71 25 30 70 59 39 32 29 51 28 39 29 25 40 37 35 33 26 23 29 19 32 28 24 21 18 16 15 11 17 28 30 27 30 30
77 78 81 114 117 64 125 121 58 43 39 72 73 83 63 62 39 29 31 42 37 48 40 37 38 28 36 33 24 24 22 20 25 26 28 19 17 19 19 18 21 23 31 33
75 81 39 83 117 124 124 120 89 38 70 18 85 89 55 75 62 36 39 48 44 35 39 39 33 40 37 28 37 36 32 31 35 27 34 26 27 30 26 20 22 22 17 29
85 80 78 77 70 59 17 122 113 32 27 65 87 23 53 71 90 28 64 49 50 56 56 37 44 38 40 40 41 41 38 23 29 31 37 37 37 28 28 26 26 25 22 19
40 36 43 43 38 123 116 119 112 105 17 81 75 32 72 86 52 40 64 57 59 57 57 56 44 54 53 47 30 39 20 42 41 36 38 39 32 41 41 35 30 33 27 23
29 33 29 24 39 60 108 114 115 106 100 103 99 106 68 34 67 64 52 64 57 61 64 46 49 58 57 57 28 27 38 32 40 41 36 37 37 40 42 41 47 32 31 28
22 20 26 39 47 64 41 111 115 108 103 103 32 30 31 38 32 72 68 37 26 31 38 39 38 65 59 55 53 41 42 36 26 33 33 32 36 38 40 37 38 48 44 38
28 30 28 43 47 82 107 105 111 108 107 107 114 108 34 38 41 64 38 80 75 69 55 34 63 62 64 64 41 42 57 53 53 50 45 36 37 46 42 42 41 42 46 43
32 30 40 43 71 68 86 103 108 113 106 108 72 65 104 98 81 64 53 35 64 80 71 74 56 51 72 58 63 61 49 47 51 45 46 47 46 47 40 39 45 48 36 38
36 33 32 49 31 52 66 104 109 108 108 109 117 83 102 102 96 93 93 93 43 61 80 65 70 76 74 70 67 58 55 55 57 51 48 47 50 48 39 41 49 43 43 52
33 39 30 59 72 87 92 99 104 107 108 111 108 50 90 102 46 96 95 93 88 39 83 74 78 65 67 73 62 59 59 62 59 55 50 51 51 50 51 51 52 52 53 55
48 33 28 53 79 41 89 98 101 77 109 98 113 105 102 101 100 98 96 94 91 88 86 80 75 77 73 69 65 64 64 66 63 56 51 53 55 56 57 56 54 54 54 53
34 49 47 34 83 81 85 94 99 104 107 112 111 105 51 90 98 96 95 92 73 79 84 83 79 79 75 72 69 68 66 64 58 55 54 54 55 57 56 62 59 57 57 56
57 57 58 50 63 92 65 100 100 104 45 109 108 105 10 99 99 99 97 92 90 72 87 78 80 80 77 73 71 72 67 65 58 55 56 54 61 59 64 65 58 56 56 55
Wind_Direction
239 224 235 233 233 229 233 234 217 219 211 211 212 201 201 193 214 190 212 204 219 268 306 171 152 70 87 186 178 157 217 170 175 173 176 124 115 109 99 110 95 79 84 74
244 244 237 232 229 225 233 206 207 219 211 228 217 215 220 217 228 217 219 225 234 253 266 251 222 106 65 267 181 159 172 181 183 184 200 174 127 112 129 114 112 105 86 75
244 241 242 238 217 229 228 226 221 222 217 205 217 213 215 226 219 222 225 222 229 212 251 210 255 141 48 358 270 146 175 210 185 190 186 181 165 131 154 139 123 113 87 78
216 245 246 237 239 232 225 228 219 215 225 218 220 225 219 217 223 230 217 229 227 228 207 233 230 201 133 348 69 211 184 165 196 205 198 195 207 160 165 154 140 143 131 99
230 237 244 202 229 232 233 206 219 220 222 218 226 228 220 230 221 217 216 224 223 232 191 231 220 228 199 158 312 227 189 188 197 194 209 209 224 248 180 177 171 160 79 130
232 228 231 242 236 234 198 162 224 218 227 227 217 224 226 224 209 224 218 224 224 220 232 212 246 221 196 188 197 196 237 198 192 222 205 216 215 233 279 203 204 199 313 33
229 233 231 203 190 230 228 218 217 204 224 216 217 218 221 225 216 219 223 220 216 206 229 188 227 225 236 196 185 220 218 235 205 208 220 213 225 229 254 207 227 250 257 248
233 220 207 233 209 220 237 230 213 202 215 226 249 236 215 227 231 223 213 220 220 214 227 229 236 208 215 236 214 191 229 216 232 217 220 229 229 234 247 232 249 243 252 270
233 229 227 232 205 228 210 229 219 206 222 208 209 226 231 218 226 226 222 214 220 212 222 225 233 227 239 194 236 225 228 224 211 223 226 233 234 241 244 240 243 243 253 245
231 223 223 224 217 220 206 206 218 206 209 228 234 246 233 226 211 211 207 225 208 199 220 221 209 205 214 239 233 240 232 247 251 224 233 237 237 235 241 248 245 252 254 256
230 227 220 217 222 228 205 217 223 214 224 221 222 224 255 235 213 210 211 223 220 221 219 224 231 229 224 233 217 227 219 223 247 225 234 242 241 240 240 245 244 258 255 261
233 223 221 220 219 224 227 224 215 212 213 212 225 215 242 239 236 229 221 203 213 223 229 228 214 227 232 238 220 236 231 244 229 240 244 241 246 242 236 244 243 244 250 255
234 230 215 218 217 221 223 224 231 210 222 256 214 224 205 227 222 236 198 217 222 213 230 230 230 229 230 218 244 234 243 250 247 246 240 241 237 247 246 247 252 252 248 250
235 234 231 214 217 217 219 220 228 229 227 219 218 228 218 232 215 241 220 229 233 238 243 236 234 231 230 234 226 229 236 247 248 250 252 246 250 247 248 253 252 256 251 253
239 236 208 227 213 216 211 218 221 247 215 190 221 224 229 220 224 218 227 228 230 212 225 236 224 239 233 236 246 247 247 247 242 255 251 256 256 256 252 252 259 262 263 258
245 243 238 237 224 225 242 211 216 144 163 213 220 182 149 220 228 211 238 224 231 232 234 220 243 242 239 237 237 240 246 240 244 251 243 244 248 254 254 256 259 265 266 271
262 241 233 237 229 212 208 205 210 210 224 217 225 204 227 226 201 212 230 224 231 229 232 235 230 241 241 243 236 237 236 249 248 248 248 243 261 243 255 257 257 262 269 271
246 236 213 195 205 201 204 203 205 207 207 214 220 225 222 206 224 225 218 229 226 231 234 231 235 240 241 241 238 244 244 250 251 249 255 257 260 250 239 255 254 265 270 272
219 196 179 172 188 190 183 201 202 204 205 210 192 186 189 206 203 227 227 224 233 236 237 231 228 242 243 244 244 242 246 249 249 264 255 259 263 260 250 263 260 257 264 266
206 166 210 170 176 190 201 197 198 200 205 206 218 223 207 208 212 222 225 232 232 232 230 234 240 243 246 247 241 241 249 249 250 253 257 255 253 253 263 249 261 247 247 264
118 127 162 163 173 199 196 193 195 199 201 208 214 220 222 224 228 235 247 223 233 233 234 237 239 243 245 243 247 248 244 246 248 247 248 248 257 261 257 257 250 245 270 268
136 133 160 154 201 189 198 191 195 195 199 205 216 214 215 222 223 226 229 233 246 227 235 242 240 242 244 246 248 247 246 245 246 247 246 247 247 252 257 259 250 263 268 248
125 159 152 161 178 197 193 190 192 194 196 204 212 212 209 216 222 223 227 232 235 228 235 233 240 244 242 247 246 244 243 245 248 250 245 248 249 251 250 251 252 252 249 250
133 147 168 171 179 202 189 189 190 193 196 204 210 210 209 213 216 219 223 228 232 234 235 236 238 240 244 244 243 241 241 246 250 246 243 245 248 252 257 259 255 254 251 253
156 164 167 179 189 193 187 189 191 193 197 203 208 210 216 214 215 220 222 225 222 226 230 236 236 238 240 242 241 242 243 245 243 242 244 249 253 255 257 263 261 256 256 256
173 178 184 182 183 190 186 187 192 194 192 203 207 209 151 213 215 217 222 222 225 241 234 231 234 236 237 240 242 244 241 242 241 242 245 247 255 256 262 262 258 256 255 256